Caldwell, NJ

7:59 AM EDT on August 24, 2019 (GMT -0400)
Essex County

Weather History for KCDW - June, 2019

Change the Weather History Date:

Monday, June 10, 2019

  Actual Average Record
Temperature  
Mean Temperature 64 °F -  
Max Temperature 72 °F 79 °F 96 °F (2008)
Min Temperature 57 °F 55 °F 41 °F (1980)
Degree Days  
Heating Degree Days 1    
Growing Degree Days 14 (Base 50)    
Moisture  
Dew Point 62 °F    
Average Humidity 89    
Maximum Humidity 100    
Minimum Humidity 62    
Precipitation  
Precipitation 0.34 in - - ()
Sea Level Pressure  
Sea Level Pressure 30.05 in    
Wind  
Wind Speed 5 mph (ENE)    
Max Wind Speed 10 mph    
Max Gust Speed -    
Visibility 5 miles    
Events Rain    
Averages and records for this station are not official NWS values.
T = Trace of Precipitation, MM = Missing Value Source: NWS Daily Summary

Daily Weather History Graph

Daily Weather History Graph

Search for Another Location

Airport or City:

Astronomy

Jun. 10, 2019 Rise Set
Actual Time 5:25 AM EDT 8:28 PM EDT
Civil Twilight 4:51 AM EDT 9:01 PM EDT
Nautical Twilight 4:09 AM EDT 9:44 PM EDT
Astronomical Twilight 3:19 AM EDT 10:34 PM EDT
Moon 1:12 PM EDT (6/10) 1:39 AM EDT (6/10)
Length of Visible Light 16h 09m
Length of Day
15h 03m
First Quarter, 55% of the Moon is Illuminated
Jun 10
First Quarter
Jun 17
Full
Jun 25
Last Quarter
Jul 2
New
Jul 9
First Quarter

Hourly Weather History & Observations

Time (EDT) Temp. Dew Point Humidity Pressure Visibility Wind Dir Wind Speed Gust Speed Precip Events Conditions
12:53 AM 59.0 °F 46.0 °F 62% 30.25 in 10.0 mi Calm Calm - N/A   Clear
1:53 AM 59.0 °F 46.9 °F 64% 30.24 in 10.0 mi Variable 3.5 mph - N/A   Clear
2:53 AM 57.9 °F 46.9 °F 67% 30.23 in 10.0 mi NNE 3.5 mph - N/A   Clear
3:53 AM 57.9 °F 48.0 °F 70% 30.21 in 10.0 mi NNE 3.5 mph - N/A   Overcast
4:53 AM 60.1 °F 50.0 °F 69% 30.20 in 10.0 mi ENE 9.2 mph - N/A   Overcast
5:53 AM 60.1 °F 52.0 °F 75% 30.18 in 10.0 mi Variable 6.9 mph - N/A   Overcast
6:20 AM 60.1 °F 53.1 °F 78% 30.17 in 10.0 mi East 8.1 mph - N/A   Overcast
6:53 AM 60.1 °F 55.0 °F 83% 30.19 in 10.0 mi ENE 8.1 mph - N/A   Overcast
7:53 AM 61.0 °F 55.0 °F 81% 30.17 in 10.0 mi NE 9.2 mph - N/A   Overcast
8:53 AM 62.1 °F 57.0 °F 84% 30.16 in 5.0 mi East 8.1 mph - N/A   Haze
9:35 AM 62.1 °F 59.0 °F 90% 30.13 in 2.5 mi ENE 9.2 mph - 0.00 in   Overcast
9:53 AM 62.1 °F 59.0 °F 90% 30.15 in 2.5 mi ENE 8.1 mph - 0.00 in   Overcast
10:00 AM 62.1 °F 59.0 °F 90% 30.13 in 7.0 mi ENE 10.4 mph - N/A   Overcast
10:40 AM 64.0 °F 59.0 °F 84% 30.11 in 7.0 mi ENE 6.9 mph - N/A   Overcast
10:53 AM 64.9 °F 60.1 °F 84% 30.12 in 10.0 mi ENE 6.9 mph - N/A   Overcast
11:24 AM 64.0 °F 61.0 °F 90% 30.10 in 2.0 mi NE 6.9 mph - 0.00 in Rain Light Rain
11:53 AM 64.9 °F 63.0 °F 93% 30.10 in 1.5 mi ENE 8.1 mph - 0.01 in Rain Light Rain
12:16 PM 66.0 °F 64.0 °F 93% 30.08 in 2.5 mi ENE 8.1 mph - 0.03 in Rain Light Rain
12:30 PM 66.0 °F 64.0 °F 93% 30.07 in 1.8 mi ENE 9.2 mph - 0.03 in Rain Light Rain
12:53 PM 66.9 °F 64.9 °F 93% 30.07 in 1.8 mi East 8.1 mph - 0.04 in Rain Light Rain
1:53 PM 66.9 °F 66.0 °F 97% 30.04 in 1.8 mi East 8.1 mph - 0.02 in Rain Light Rain
2:53 PM 68.0 °F 66.9 °F 96% 30.01 in 1.8 mi ENE 9.2 mph - 0.07 in Rain Light Rain
3:53 PM 68.0 °F 66.9 °F 96% 29.99 in 1.2 mi ENE 5.8 mph - 0.08 in Rain Light Rain
4:18 PM 68.0 °F 66.9 °F 96% 29.97 in 1.5 mi East 8.1 mph - 0.00 in   Overcast
4:53 PM 69.1 °F 66.9 °F 93% 29.97 in 1.2 mi East 6.9 mph - 0.00 in   Overcast
5:43 PM 69.1 °F 68.0 °F 96% 29.95 in 1.2 mi ENE 3.5 mph - N/A   Overcast
5:53 PM 69.1 °F 68.0 °F 96% 29.96 in 1.2 mi East 6.9 mph - N/A   Overcast
6:50 PM 69.8 °F 68.0 °F 94% 29.93 in 3.0 mi NE 4.6 mph - 0.00 in   Overcast
6:53 PM 69.1 °F 68.0 °F 96% 29.94 in 3.0 mi NE 3.5 mph - 0.00 in   Overcast
7:53 PM 69.1 °F 68.0 °F 96% 29.92 in 3.0 mi East 3.5 mph - 0.02 in Rain Light Rain
8:48 PM 69.8 °F 68.0 °F 94% 29.90 in 2.5 mi ENE 5.8 mph - 0.00 in Rain Light Rain
8:53 PM 69.1 °F 68.0 °F 96% 29.91 in 2.5 mi East 4.6 mph - 0.00 in Rain Light Rain
9:04 PM 69.1 °F 69.1 °F 100% 29.90 in 3.0 mi ENE 4.6 mph - 0.00 in   Overcast
9:14 PM 69.1 °F 69.1 °F 100% 29.90 in 2.5 mi Calm Calm - 0.00 in   Overcast
9:53 PM 70.0 °F 69.1 °F 97% 29.90 in 1.2 mi ENE 5.8 mph - 0.00 in   Overcast
10:37 PM 71.1 °F 70.0 °F 96% 29.88 in 2.5 mi SE 4.6 mph - 0.04 in Rain Rain
10:40 PM 71.1 °F 70.0 °F 96% 29.88 in 3.0 mi SSE 5.8 mph - 0.05 in Rain Rain
10:53 PM 71.1 °F 70.0 °F 96% 29.89 in 4.0 mi Variable 3.5 mph - 0.09 in Rain Rain
11:53 PM 72.0 °F 71.1 °F 97% 29.87 in 8.0 mi Variable 3.5 mph - 0.01 in   Overcast